FW6905 Weather Reports


Display with metric or nautical units.
time (UTC)temp
F
wind
direction
speed
MPH
gust
MPH
rain 1hr
in
rain 24hr
in
rain mn
in
humidity
%
barometer
mb
20260503035006 43 0 0.0 0.0 0.00 0.00 0.00 75 1021.8
20260503034505 43 0 0.0 0.0 0.00 0.00 0.00 75 1021.8
20260503034006 43 0 0.0 0.0 0.00 0.00 0.00 75 1021.8
20260503033505 43 94 0.0 2.0 0.00 0.00 0.00 74 1021.8
20260503033006 43 99 0.0 2.0 0.00 0.00 0.00 74 1021.8
20260503032506 43 107 1.0 2.0 0.00 0.00 0.00 75 1021.8
20260503032006 43 94 1.0 2.0 0.00 0.00 0.00 75 1021.8
20260503031506 43 68 0.0 2.0 0.00 0.00 0.00 74 1021.8
20260503031006 43 68 1.0 2.0 0.00 0.00 0.00 75 1021.8
20260503030005 44 30 0.0 2.0 0.00 0.00 0.00 73 1021.8
20260503025506 44 68 0.0 3.0 0.00 0.00 0.00 73 1021.8
20260503025005 44 77 2.0 3.0 0.00 0.00 0.00 74 1021.8
20260503024506 44 89 1.0 2.0 0.00 0.00 0.00 73 1021.8
20260503024005 44 87 2.0 2.0 0.00 0.00 0.00 73 1021.8
20260503023506 44 1 0.0 2.0 0.00 0.00 0.00 73 1021.8
20260503023006 44 1 1.0 2.0 0.00 0.00 0.00 74 1021.8
20260503022006 44 27 0.0 2.0 0.00 0.00 0.00 71 1021.8
20260503021505 44 27 0.0 2.0 0.00 0.00 0.00 72 1021.8
20260503021006 44 135 0.0 2.0 0.00 0.00 0.00 73 1021.8
20260503020506 44 135 0.0 2.0 0.00 0.00 0.00 72 1021.8
20260503020006 44 130 1.0 2.0 0.00 0.00 0.00 73 1021.8
20260503015506 45 100 1.0 2.0 0.00 0.00 0.00 72 1021.8
20260503015006 45 70 1.0 2.0 0.00 0.00 0.00 72 1021.8
20260503014005 45 97 2.0 2.0 0.00 0.00 0.00 74 1021.8
20260503013506 45 82 2.0 2.0 0.00 0.00 0.00 71 1021.8
20260503013006 45 48 1.0 2.0 0.00 0.00 0.00 71 1021.8
20260503012006 45 69 0.0 2.0 0.00 0.00 0.00 70 1021.8
20260503011506 45 48 0.0 2.0 0.00 0.00 0.00 70 1021.8
20260503010506 45 109 0.0 2.0 0.00 0.00 0.00 70 1020.8
20260503010006 46 107 1.0 2.0 0.00 0.00 0.00 70 1020.8
20260503005505 46 87 0.0 2.0 0.00 0.00 0.00 69 1021.8
20260503004505 46 82 2.0 2.0 0.00 0.00 0.00 71 1021.8
20260503004005 46 64 1.0 2.0 0.00 0.00 0.00 69 1021.8
20260503003505 46 64 1.0 2.0 0.00 0.00 0.00 68 1021.8
20260503003006 46 0 0.0 0.0 0.00 0.00 0.00 68 1021.8
20260503002506 46 78 0.0 2.0 0.00 0.00 0.00 68 1021.8
20260503001505 46 67 1.0 2.0 0.00 0.00 0.00 67 1021.8
20260503001006 47 0 0.0 0.0 0.00 0.00 0.00 67 1022.8
20260503000505 47 0 0.0 0.0 0.00 0.00 0.00 68 1022.8
20260503000006 47 45 0.0 1.0 0.00 0.00 0.00 68 1022.8
20260502235505 47 60 0.0 1.0 0.00 0.00 0.00 67 1021.8
20260502235006 47 81 0.0 2.0 0.00 0.00 0.00 66 1021.8
20260502234505 47 73 1.0 2.0 0.00 0.00 0.00 66 1021.8
20260502234006 47 89 2.0 2.0 0.00 0.00 0.00 66 1022.8
20260502233006 48 120 1.0 2.0 0.00 0.00 0.00 66 1022.8
20260502232505 48 104 2.0 2.0 0.00 0.00 0.00 66 1022.8
20260502232006 48 78 0.0 3.0 0.00 0.00 0.00 65 1022.8
20260502231505 48 71 2.0 3.0 0.00 0.00 0.00 66 1022.8
20260502231005 48 58 2.0 3.0 0.00 0.00 0.00 65 1023.8
20260502230006 48 90 0.0 2.0 0.00 0.00 0.00 64 1023.8
20260502225505 48 90 0.0 2.0 0.00 0.00 0.00 64 1022.8
20260502225006 49 86 0.0 2.0 0.00 0.00 0.00 64 1022.8
20260502224506 49 76 1.0 2.0 0.00 0.00 0.00 63 1022.8
20260502224006 49 0 0.0 0.0 0.00 0.00 0.00 64 1022.8
20260502223505 49 42 0.0 2.0 0.00 0.00 0.00 65 1022.8
20260502223006 49 40 0.0 2.0 0.00 0.00 0.00 63 1022.8
20260502222505 49 54 1.0 2.0 0.00 0.00 0.00 62 1022.8
20260502222006 49 112 0.0 2.0 0.00 0.00 0.00 62 1022.8
20260502221506 49 146 0.0 2.0 0.00 0.00 0.00 61 1022.8
20260502215506 50 68 0.0 2.0 0.00 0.00 0.00 60 1023.8
20260502215005 50 71 2.0 2.0 0.00 0.00 0.00 61 1023.8
20260502214505 50 203 0.0 2.0 0.00 0.00 0.00 60 1023.8
20260502213505 50 68 0.0 2.0 0.00 0.00 0.00 61 1022.8
20260502212005 51 93 0.0 2.0 0.00 0.00 0.00 58 1022.8
20260502211506 51 48 1.0 2.0 0.00 0.00 0.00 59 1022.8
20260502211005 51 36 0.0 2.0 0.00 0.00 0.00 57 1022.8
20260502210505 51 117 0.0 2.0 0.00 0.00 0.00 57 1022.8
20260502210006 52 173 1.0 2.0 0.00 0.00 0.00 58 1022.8
20260502205505 52 297 1.0 2.0 0.00 0.00 0.00 56 1023.8
20260502205006 52 62 1.0 2.0 0.00 0.00 0.00 55 1023.8
20260502204505 52 67 0.0 2.0 0.00 0.00 0.00 55 1023.8
20260502203505 53 0 0.0 0.0 0.00 0.00 0.00 54 1023.8
20260502203006 53 0 0.0 0.0 0.00 0.00 0.00 54 1023.8
20260502202505 53 45 0.0 1.0 0.00 0.00 0.00 53 1023.8
20260502202005 53 45 0.0 1.0 0.00 0.00 0.00 53 1023.8
20260502201505 54 0 0.0 0.0 0.00 0.00 0.00 52 1023.8
20260502201005 54 0 0.0 0.0 0.00 0.00 0.00 52 1023.8
20260502200506 54 0 0.0 0.0 0.00 0.00 0.00 50 1023.8
20260502200005 54 1 0.0 2.0 0.00 0.00 0.00 50 1023.8
20260502195506 55 1 0.0 2.0 0.00 0.00 0.00 50 1022.8
20260502195005 55 0 0.0 0.0 0.00 0.00 0.00 50 1022.8
20260502194506 55 158 0.0 2.0 0.00 0.00 0.00 47 1022.8
20260502194005 56 159 0.0 2.0 0.00 0.00 0.00 48 1022.8
20260502193506 56 168 0.0 2.0 0.00 0.00 0.00 46 1022.8
20260502193005 56 181 0.0 2.0 0.00 0.00 0.00 44 1022.8
20260502192506 57 181 0.0 2.0 0.00 0.00 0.00 44 1022.8
20260502192005 57 68 0.0 1.0 0.00 0.00 0.00 44 1022.8
20260502191506 58 68 0.0 2.0 0.00 0.00 0.00 41 1022.8
20260502190505 58 54 0.0 2.0 0.00 0.00 0.00 40 1021.8
20260502190006 59 49 1.0 2.0 0.00 0.00 0.00 39 1021.8
20260502185505 59 0 0.0 0.0 0.00 0.00 0.00 38 1021.8
20260502185006 60 308 0.0 2.0 0.00 0.00 0.00 37 1021.8
20260502184505 60 308 0.0 2.0 0.00 0.00 0.00 36 1021.8
20260502184006 61 299 0.0 2.0 0.00 0.00 0.00 35 1021.8
20260502183506 61 104 0.0 2.0 0.00 0.00 0.00 34 1021.8
20260502183006 62 111 0.0 2.0 0.00 0.00 0.00 33 1021.8
20260502182505 62 0 0.0 0.0 0.00 0.00 0.00 33 1021.8
20260502182005 63 0 0.0 0.0 0.00 0.00 0.00 32 1021.8
20260502181505 64 253 0.0 2.0 0.00 0.00 0.00 32 1021.8
20260502181005 64 266 0.0 3.0 0.00 0.00 0.00 31 1021.8
20260502180505 65 245 2.0 3.0 0.00 0.00 0.00 30 1021.8
20260502170506 71 251 2.0 7.0 0.00 0.00 0.00 23 1020.8
20260502164005 72 209 3.0 12.0 0.00 0.00 0.00 21 1021.8
20260502163005 73 229 6.0 9.0 0.00 0.00 0.00 22 1021.8
20260502162006 73 217 4.0 6.0 0.00 0.00 0.00 22 1021.8
20260502161505 73 273 2.0 11.0 0.00 0.00 0.00 23 1021.8
20260502161005 73 279 3.0 11.0 0.00 0.00 0.00 22 1021.8
20260502160505 74 242 2.0 9.0 0.00 0.00 0.00 22 1021.8
20260502151505 75 228 4.0 9.0 0.00 0.00 0.00 21 1021.8
20260502151005 75 212 6.0 9.0 0.00 0.00 0.00 21 1022.8
20260502150506 75 211 6.0 12.0 0.00 0.00 0.00 21 1022.8
20260502130505 76 240 7.0 13.0 0.00 0.00 0.00 19 1023.8
20260502123505 77 247 6.0 11.0 0.00 0.00 0.00 19 1023.8
20260502123006 76 241 3.0 10.0 0.00 0.00 0.00 20 1023.8
20260502122505 76 238 5.0 10.0 0.00 0.00 0.00 20 1023.8
20260502122006 76 232 5.0 13.0 0.00 0.00 0.00 19 1023.8
20260502120505 76 233 9.0 14.0 0.00 0.00 0.00 19 1023.8
20260502115505 77 224 7.0 11.0 0.00 0.00 0.00 19 1023.8
20260502115005 77 240 6.0 9.0 0.00 0.00 0.00 20 1023.8
20260502114005 76 258 6.0 13.0 0.00 0.00 0.00 20 1023.8
20260502113005 76 248 5.0 12.0 0.00 0.00 0.00 20 1023.8
20260502112505 76 259 4.0 11.0 0.00 0.00 0.00 20 1024.8
20260502112005 76 253 8.0 11.0 0.00 0.00 0.00 21 1024.8
20260502111505 76 233 4.0 11.0 0.00 0.00 0.00 20 1024.8
20260502111006 76 240 4.0 11.0 0.00 0.00 0.00 22 1024.8
20260502110505 76 248 5.0 12.0 0.00 0.00 0.00 22 1024.8
20260502110006 76 257 8.0 12.0 0.00 0.00 0.00 21 1024.8
20260502105505 76 251 5.0 11.0 0.00 0.00 0.00 22 1024.8
20260502105006 76 233 4.0 9.0 0.00 0.00 0.00 24 1024.8
20260502104005 76 236 5.0 10.0 0.00 0.00 0.00 23 1024.8
20260502103505 75 231 4.0 11.0 0.00 0.00 0.00 24 1024.8
20260502102505 75 247 4.0 9.0 0.00 0.00 0.00 25 1024.8
20260502102005 75 265 3.0 10.0 0.00 0.00 0.00 25 1024.8
20260502101504 75 243 5.0 10.0 0.00 0.00 0.00 26 1024.8
20260502101005 75 250 5.0 7.0 0.00 0.00 0.00 24 1024.8
20260502100505 74 255 2.0 8.0 0.00 0.00 0.00 26 1024.8
20260502091505 70 153 2.0 4.0 0.00 0.00 0.00 34 1025.8
20260502090506 69 27 2.0 3.0 0.00 0.00 0.00 37 1025.8
20260502071505 57 19 4.0 5.0 0.00 0.00 0.00 55 1027.8
20260502071005 56 74 2.0 4.0 0.00 0.00 0.00 56 1027.8
20260502070504 56 72 1.0 4.0 0.00 0.00 0.00 57 1027.8
20260502070005 55 147 2.0 4.0 0.00 0.00 0.00 58 1027.8
20260502065504 54 185 2.0 4.0 0.00 0.00 0.00 60 1027.8
20260502064505 53 251 2.0 3.0 0.00 0.00 0.00 63 1027.8
20260502064005 52 238 0.0 4.0 0.00 0.00 0.00 63 1027.8
20260502063504 52 288 2.0 5.0 0.00 0.00 0.00 64 1027.8
20260502063005 51 310 4.0 5.0 0.00 0.00 0.00 65 1027.8
20260502062505 51 332 1.0 3.0 0.00 0.00 0.00 65 1027.8
20260502061505 49 142 2.0 3.0 0.00 0.00 0.00 71 1027.8
20260502061005 49 176 0.0 3.0 0.00 0.00 0.00 72 1027.8
20260502060504 48 265 2.0 3.0 0.00 0.00 0.00 73 1027.8
20260502060005 48 358 2.0 3.0 0.00 0.00 0.00 74 1027.8
20260502055504 47 64 0.0 3.0 0.00 0.00 0.00 74 1027.8
20260502055005 46 115 2.0 3.0 0.00 0.00 0.00 76 1027.8
20260502054505 46 134 1.0 3.0 0.00 0.00 0.00 78 1027.8
20260502054005 45 114 1.0 3.0 0.00 0.00 0.00 79 1027.8
20260502053505 44 126 0.0 2.0 0.00 0.00 0.00 80 1027.8
20260502053005 44 134 1.0 2.0 0.00 0.00 0.00 80 1027.8
20260502052505 43 134 1.0 2.0 0.00 0.00 0.00 79 1027.8
20260502051505 42 143 2.0 2.0 0.00 0.00 0.00 79 1027.8
20260502050505 41 198 0.0 2.0 0.00 0.00 0.00 76 1026.8
20260502050005 41 0 0.0 0.0 0.00 0.00 0.00 76 1026.8
20260502045505 41 0 0.0 0.0 0.00 0.00 0.00 74 1027.8
20260502045005 41 0 0.0 0.0 0.00 0.00 0.00 75 1027.8
20260502044505 41 181 0.0 2.0 0.00 0.00 0.00 74 1027.8
20260502044005 41 181 0.0 2.0 0.00 0.00 0.00 74 1027.8
20260502043504 41 0 0.0 0.0 0.00 0.00 0.00 74 1027.8
20260502043005 41 207 0.0 2.0 0.00 0.00 0.00 73 1027.8
20260502042504 41 197 1.0 2.0 0.00 0.00 0.00 73 1027.8
20260502042004 41 85 1.0 2.0 0.00 0.00 0.00 73 1027.8
20260502041505 41 1 0.0 2.0 0.00 0.00 0.00 72 1027.8
20260502041004 41 0 0.0 0.0 0.00 0.00 0.00 72 1027.8
20260502040505 41 0 0.0 0.0 0.00 0.00 0.00 72 1027.8
20260502035505 41 0 0.0 0.0 0.00 0.00 0.00 72 1027.8